• In Deutschland
  • Länderverzeichnis
  • Für 7 Tage
  • Wassertemperatur
  • Satellitenkarten
  • Wetterkarte
  • Widgets
  • user-avatar
    Anmelden

    Stündliche Wetter Medellín

    Heute, 21 August, Montag

    Zeit Temperatur Niederschläge Wind Luftdruck Luftfeuchtigkeit
    00:00 +13°C° 0,1 mm 1 m/S 586 mmHg 93%
    01:00 +13°C° 0,1 mm 1 m/S 586 mmHg 92%
    02:00 +13°C° 0 mm 1 m/S 585 mmHg 92%
    03:00 +13°C° 0 mm 1 m/S 585 mmHg 92%
    04:00 +12°C° 0 mm 1 m/S 585 mmHg 92%
    05:00 +13°C° 0 mm 1 m/S 586 mmHg 90%
    06:00 +13°C° 0 mm 1 m/S 586 mmHg 89%
    07:00 +13°C° 0 mm 1 m/S 586 mmHg 87%
    08:00 +16°C° 0 mm 1 m/S 588 mmHg 75%
    09:00 +20°C° 0 mm 1 m/S 589 mmHg 63%
    10:00 +22°C° 0 mm 1 m/S 590 mmHg 50%
    11:00 +23°C° 0,1 mm 2 m/S 590 mmHg 47%
    12:00 +25°C° 0,1 mm 2 m/S 590 mmHg 43%
    13:00 +26°C° 0,1 mm 2 m/S 590 mmHg 40%
    14:00 +25°C° 0,2 mm 2 m/S 589 mmHg 41%
    15:00 +25°C° 0,2 mm 2 m/S 588 mmHg 42%
    16:00 +24°C° 0,2 mm 2 m/S 588 mmHg 43%
    17:00 +21°C° 0,2 mm 2 m/S 587 mmHg 53%
    18:00 +19°C° 0,2 mm 1 m/S 587 mmHg 62%
    19:00 +16°C° 0,2 mm 1 m/S 586 mmHg 72%
    20:00 +15°C° 0,1 mm 1 m/S 586 mmHg 75%
    21:00 +15°C° 0,1 mm 1 m/S 587 mmHg 77%
    22:00 +14°C° 0,1 mm 1 m/S 587 mmHg 80%
    23:00 +14°C° 0 mm 1 m/S 587 mmHg 81%

    Morgen, 22 August, Dienstag

    Zeit Temperatur Niederschläge Wind Luftdruck Luftfeuchtigkeit
    00:00 +13°C° 0 mm 1 m/S 586 mmHg 82%
    01:00 +13°C° 0 mm 1 m/S 586 mmHg 83%
    02:00 +13°C° 0,6 mm 1 m/S 585 mmHg 83%
    03:00 +13°C° 0,6 mm 1 m/S 585 mmHg 84%
    04:00 +12°C° 0,6 mm 1 m/S 585 mmHg 84%
    05:00 +13°C° 0,9 mm 1 m/S 585 mmHg 85%
    06:00 +13°C° 0,9 mm 1 m/S 586 mmHg 86%
    07:00 +13°C° 0,9 mm 1 m/S 586 mmHg 87%
    08:00 +15°C° 0,7 mm 1 m/S 587 mmHg 81%
    09:00 +16°C° 0,7 mm 1 m/S 588 mmHg 76%
    10:00 +19°C° 0,7 mm 1 m/S 589 mmHg 71%
    11:00 +21°C° 0 mm 1 m/S 589 mmHg 59%
    12:00 +24°C° 0 mm 1 m/S 589 mmHg 48%
    13:00 +26°C° 0 mm 1 m/S 590 mmHg 36%
    14:00 +26°C° 0,1 mm 1 m/S 589 mmHg 37%
    15:00 +25°C° 0,1 mm 1 m/S 588 mmHg 39%
    16:00 +24°C° 0,1 mm 1 m/S 588 mmHg 40%
    17:00 +22°C° 0,2 mm 1 m/S 587 mmHg 50%
    18:00 +19°C° 0,2 mm 1 m/S 586 mmHg 60%
    19:00 +15°C° 0,2 mm 1 m/S 585 mmHg 70%
    20:00 +15°C° 0,1 mm 1 m/S 586 mmHg 73%
    21:00 +14°C° 0,1 mm 1 m/S 586 mmHg 76%
    22:00 +14°C° 0,1 mm 1 m/S 587 mmHg 79%
    23:00 +14°C° 0 mm 1 m/S 586 mmHg 80%

    übermorgen, 23 August, Mittwoch

    Zeit Temperatur Niederschläge Wind Luftdruck Luftfeuchtigkeit
    00:00 +13°C° 0 mm 1 m/S 586 mmHg 81%
    01:00 +13°C° 0 mm 1 m/S 585 mmHg 82%
    02:00 +12°C° 0 mm 1 m/S 585 mmHg 83%
    03:00 +12°C° 0 mm 1 m/S 585 mmHg 83%
    04:00 +12°C° 0 mm 1 m/S 584 mmHg 83%
    05:00 +12°C° 0 mm 1 m/S 585 mmHg 80%
    06:00 +13°C° 0 mm 1 m/S 585 mmHg 78%
    07:00 +13°C° 0 mm 1 m/S 586 mmHg 75%
    08:00 +16°C° 0 mm 1 m/S 587 mmHg 63%
    09:00 +20°C° 0 mm 1 m/S 589 mmHg 51%
    10:00 +24°C° 0 mm 1 m/S 590 mmHg 39%
    11:00 +24°C° 0 mm 1 m/S 590 mmHg 38%
    12:00 +25°C° 0 mm 1 m/S 589 mmHg 37%
    13:00 +26°C° 0 mm 1 m/S 589 mmHg 36%
    14:00 +25°C° 0,2 mm 1 m/S 588 mmHg 40%
    15:00 +24°C° 0,2 mm 1 m/S 587 mmHg 45%
    16:00 +22°C° 0,2 mm 1 m/S 586 mmHg 49%
    17:00 +21°C° 0,3 mm 1 m/S 586 mmHg 57%
    18:00 +19°C° 0,3 mm 1 m/S 586 mmHg 65%
    19:00 +16°C° 0,3 mm 1 m/S 585 mmHg 73%
    20:00 +15°C° 0,2 mm 1 m/S 585 mmHg 77%
    21:00 +14°C° 0,1 mm 1 m/S 586 mmHg 80%
    22:00 +14°C° 0,2 mm 1 m/S 586 mmHg 84%
    23:00 +14°C° 0,4 mm 1 m/S 585 mmHg 86%

    24 August, Donnerstag

    Zeit Temperatur Niederschläge Wind Luftdruck Luftfeuchtigkeit
    00:00 +12°C° 0,4 mm 0 m/S 585 mmHg 87%
    01:00 +12°C° 0,4 mm 0 m/S 585 mmHg 89%
    02:00 +12°C° 0,5 mm 0 m/S 585 mmHg 88%
    03:00 +12°C° 0,5 mm 0 m/S 585 mmHg 88%
    04:00 +12°C° 0,5 mm 0 m/S 584 mmHg 88%
    05:00 +12°C° 0,1 mm 0 m/S 585 mmHg 87%
    06:00 +12°C° 0,1 mm 0 m/S 585 mmHg 86%
    07:00 +13°C° 0,1 mm 0 m/S 586 mmHg 85%
    08:00 +16°C° 0,1 mm 1 m/S 587 mmHg 75%
    09:00 +19°C° 0,1 mm 1 m/S 588 mmHg 65%
    10:00 +21°C° 0,1 mm 1 m/S 589 mmHg 56%
    11:00 +22°C° 0,4 mm 1 m/S 589 mmHg 55%
    12:00 +23°C° 0,4 mm 1 m/S 588 mmHg 55%
    13:00 +23°C° 0,4 mm 1 m/S 588 mmHg 54%
    14:00 +22°C° 0,7 mm 1 m/S 587 mmHg 58%
    15:00 +21°C° 0,7 mm 1 m/S 587 mmHg 62%
    16:00 +20°C° 0,7 mm 1 m/S 586 mmHg 66%
    17:00 +19°C° 0,6 mm 1 m/S 586 mmHg 72%
    18:00 +16°C° 0,6 mm 1 m/S 585 mmHg 79%
    19:00 +15°C° 0,6 mm 1 m/S 585 mmHg 85%
    20:00 +14°C° 0,3 mm 1 m/S 585 mmHg 86%
    21:00 +14°C° 0,3 mm 1 m/S 585 mmHg 87%
    22:00 +13°C° 0,3 mm 0 m/S 586 mmHg 88%
    23:00 +12°C° 0,5 mm 0 m/S 585 mmHg 89%

    25 August, Freitag

    Zeit Temperatur Niederschläge Wind Luftdruck Luftfeuchtigkeit
    00:00 +12°C° 0,5 mm 0 m/S 585 mmHg 89%
    01:00 +12°C° 0,5 mm 0 m/S 585 mmHg 89%
    02:00 +12°C° 0,7 mm 0 m/S 585 mmHg 89%
    03:00 +12°C° 0,7 mm 0 m/S 585 mmHg 89%
    04:00 +11°C° 0,7 mm 0 m/S 585 mmHg 89%
    05:00 +12°C° 0,3 mm 0 m/S 585 mmHg 88%
    06:00 +12°C° 0,3 mm 0 m/S 586 mmHg 86%
    07:00 +13°C° 0,3 mm 1 m/S 586 mmHg 85%
    08:00 +16°C° 0 mm 1 m/S 587 mmHg 74%
    09:00 +19°C° 0 mm 1 m/S 588 mmHg 64%
    10:00 +21°C° 0 mm 1 m/S 590 mmHg 53%
    11:00 +22°C° 0,2 mm 1 m/S 589 mmHg 51%
    12:00 +23°C° 0,2 mm 2 m/S 589 mmHg 48%
    13:00 +24°C° 0,2 mm 2 m/S 589 mmHg 46%
    14:00 +24°C° 0,2 mm 2 m/S 588 mmHg 47%
    15:00 +23°C° 0,2 mm 2 m/S 588 mmHg 48%
    16:00 +23°C° 0,2 mm 2 m/S 587 mmHg 49%
    17:00 +20°C° 0,2 mm 2 m/S 587 mmHg 60%
    18:00 +18°C° 0,2 mm 1 m/S 586 mmHg 71%
    19:00 +15°C° 0,2 mm 1 m/S 586 mmHg 82%
    20:00 +14°C° 0,1 mm 1 m/S 586 mmHg 84%
    21:00 +14°C° 0,1 mm 1 m/S 586 mmHg 86%
    22:00 +13°C° 0,1 mm 1 m/S 586 mmHg 88%
    23:00 +13°C° 0 mm 1 m/S 586 mmHg 87%

    26 August, Samstag

    Zeit Temperatur Niederschläge Wind Luftdruck Luftfeuchtigkeit
    00:00 +13°C° 0 mm 1 m/S 585 mmHg 86%
    01:00 +12°C° 0 mm 1 m/S 585 mmHg 85%
    02:00 +12°C° 0 mm 1 m/S 585 mmHg 85%
    03:00 +12°C° 0 mm 1 m/S 585 mmHg 85%
    04:00 +11°C° 0 mm 1 m/S 584 mmHg 84%
    05:00 +12°C° 0 mm 1 m/S 585 mmHg 83%
    06:00 +12°C° 0 mm 1 m/S 585 mmHg 81%
    07:00 +13°C° 0 mm 1 m/S 586 mmHg 79%
    08:00 +16°C° 0 mm 1 m/S 587 mmHg 69%
    09:00 +20°C° 0 mm 1 m/S 589 mmHg 58%
    10:00 +23°C° 0 mm 1 m/S 590 mmHg 47%
    11:00 +23°C° 0,2 mm 1 m/S 589 mmHg 47%
    12:00 +24°C° 0,2 mm 1 m/S 589 mmHg 47%
    13:00 +25°C° 0,2 mm 1 m/S 589 mmHg 47%
    14:00 +24°C° 0,4 mm 1 m/S 588 mmHg 50%
    15:00 +23°C° 0,4 mm 1 m/S 587 mmHg 52%
    16:00 +22°C° 0,4 mm 1 m/S 586 mmHg 55%
    17:00 +20°C° 0,4 mm 1 m/S 586 mmHg 63%
    18:00 +18°C° 0,4 mm 1 m/S 586 mmHg 71%
    19:00 +15°C° 0,4 mm 1 m/S 585 mmHg 79%
    20:00 +15°C° 0,2 mm 1 m/S 585 mmHg 82%
    21:00 +14°C° 0,2 mm 1 m/S 585 mmHg 85%
    22:00 +13°C° 0,2 mm 1 m/S 585 mmHg 87%
    23:00 +13°C° 0,1 mm 1 m/S 585 mmHg 87%
    Mehr zeigen